EW6576 Weather Reports


Display with metric or nautical units.
time (UTC)temp
F
wind
direction
speed
MPH
gust
MPH
rain 1hr
in
rain 24hr
in
rain mn
in
humidity
%
barometer
mb
20260905174827 84 154 0.0 0.0 0.00 0.00 0.00 34 1014.3
20260905174323 84 176 0.0 0.0 0.00 0.00 0.00 33 1014.5
20260905173818 83 172 0.0 0.0 0.00 0.00 0.00 35 1014.4
20260905173315 82 150 0.0 1.0 0.00 0.00 0.00 34 1014.1
20260905172814 82 154 0.0 1.0 0.00 0.00 0.00 36 1014.1
20260905172312 82 94 1.0 1.0 0.00 0.00 0.00 34 1014.2
20260905171809 81 178 0.0 0.0 0.00 0.00 0.00 33 1014.0
20260905171305 81 152 1.0 1.0 0.00 0.00 0.00 35 1014.0
20260905170801 80 178 0.0 0.0 0.00 0.00 0.00 39 1014.0
20260905170257 80 142 0.0 1.0 0.00 0.00 0.00 40 1014.1
20260905165756 80 160 0.0 0.0 0.00 0.00 0.00 44 1013.9
20260905165252 79 201 0.0 0.0 0.00 0.00 0.00 42 1014.3
20260905164752 79 198 1.0 1.0 0.00 0.00 0.00 43 1013.9
20260905164246 79 157 0.0 0.0 0.00 0.00 0.00 38 1014.2
20260905163742 79 151 0.0 1.0 0.00 0.00 0.00 39 1014.2
20260905163238 78 204 0.0 1.0 0.00 0.00 0.00 41 1014.1
20260905162734 77 118 1.0 1.0 0.00 0.00 0.00 47 1014.2
20260905162233 77 144 1.0 1.0 0.00 0.00 0.00 50 1014.1
20260905161723 76 186 0.0 0.0 0.00 0.00 0.00 53 1013.9
20260905161221 75 132 0.0 0.0 0.00 0.00 0.00 55 1014.0
20260905160720 75 136 0.0 0.0 0.00 0.00 0.00 57 1014.1
20260905160220 75 137 0.0 0.0 0.00 0.00 0.00 56 1014.0
20260905155714 74 137 0.0 0.0 0.00 0.00 0.00 57 1014.3
20260905155213 74 137 0.0 0.0 0.00 0.00 0.00 59 1014.1
20260905154707 74 135 1.0 1.0 0.00 0.00 0.00 58 1014.3
20260905154202 74 137 0.0 0.0 0.00 0.00 0.00 60 1014.0
20260905153654 74 141 1.0 1.0 0.00 0.00 0.00 59 1014.1
20260905153148 74 198 0.0 1.0 0.00 0.00 0.00 59 1013.9
20260905152637 73 180 0.0 0.0 0.00 0.00 0.00 65 1013.9
20260905152132 72 128 0.0 0.0 0.00 0.00 0.00 68 1013.8
20260905151627 70 114 0.0 0.0 0.00 0.00 0.00 71 1013.8
20260905151122 69 116 0.0 0.0 0.00 0.00 0.00 72 1013.8
20260905150618 70 112 0.0 1.0 0.00 0.00 0.00 71 1013.9
20260905150116 69 124 0.0 0.0 0.00 0.00 0.00 72 1014.0
20260905145615 68 124 0.0 0.0 0.00 0.00 0.00 75 1013.9
20260905145114 67 124 0.0 0.0 0.00 0.00 0.00 76 1013.8
20260905144609 67 124 0.0 0.0 0.00 0.00 0.00 76 1013.8
20260905144108 66 124 0.0 0.0 0.00 0.00 0.00 77 1013.8
20260905143608 65 124 0.0 0.0 0.00 0.00 0.00 77 1013.7
20260905143103 64 124 0.0 0.0 0.00 0.00 0.00 81 1013.7
20260905142601 62 124 0.0 0.0 0.00 0.00 0.00 83 1013.4
20260905142056 62 124 0.0 0.0 0.00 0.00 0.00 87 1013.4
20260905141555 60 124 0.0 0.0 0.00 0.00 0.00 91 1013.2
20260905141052 60 124 0.0 0.0 0.00 0.00 0.00 93 1013.3
20260905140547 59 124 0.0 0.0 0.00 0.00 0.00 95 1013.3
20260905140046 57 124 0.0 0.0 0.00 0.00 0.00 96 1013.3
20260905135542 55 124 0.0 0.0 0.00 0.00 0.00 96 1013.4
20260905135036 53 124 0.0 0.0 0.00 0.00 0.00 96 1013.3
20260905134531 53 110 0.0 0.0 0.00 0.00 0.00 96 1013.3
20260905134030 53 110 0.0 0.0 0.00 0.00 0.00 96 1013.1
20260905133525 53 143 0.0 0.0 0.00 0.00 0.00 96 1012.9
20260905133020 52 143 0.0 0.0 0.00 0.00 0.00 96 1013.1
20260905132520 52 143 0.0 0.0 0.00 0.00 0.00 96 1013.1
20260905132020 52 142 0.0 1.0 0.00 0.00 0.00 96 1012.9
20260905131515 52 142 1.0 1.0 0.00 0.00 0.00 96 1012.9
20260905131010 52 142 0.0 0.0 0.00 0.00 0.00 97 1012.6
20260905130509 52 142 0.0 0.0 0.00 0.00 0.00 97 1012.8
20260905130005 52 142 0.0 0.0 0.00 0.00 0.00 97 1012.9
20260905125459 52 142 0.0 0.0 0.00 0.00 0.00 97 1013.1
20260905124954 52 142 0.0 1.0 0.00 0.00 0.00 97 1013.0
20260905124451 53 142 0.0 0.0 0.00 0.00 0.00 97 1012.9
20260905123946 53 142 0.0 0.0 0.00 0.00 0.00 97 1012.8
20260905123443 53 142 0.0 0.0 0.00 0.00 0.00 97 1013.0
20260905122943 53 142 0.0 0.0 0.00 0.00 0.00 97 1013.0
20260905122443 53 142 0.0 0.0 0.00 0.00 0.00 97 1012.9
20260905121938 53 142 0.0 0.0 0.00 0.00 0.00 97 1012.9
20260905121434 53 142 0.0 0.0 0.00 0.00 0.00 97 1012.8
20260905120933 53 142 0.0 0.0 0.00 0.00 0.00 97 1012.9
20260905120427 53 142 0.0 0.0 0.00 0.00 0.00 97 1012.8
20260905115922 53 142 0.0 1.0 0.00 0.00 0.00 97 1012.8
20260905115421 53 142 0.0 0.0 0.00 0.00 0.00 97 1012.9
20260905114917 54 143 0.0 0.0 0.00 0.00 0.00 97 1012.6
20260905114416 54 143 0.0 0.0 0.00 0.00 0.00 97 1012.8
20260905113910 54 143 0.0 0.0 0.00 0.00 0.00 97 1012.9
20260905113405 54 143 0.0 0.0 0.00 0.00 0.00 97 1012.9
20260905112901 54 143 0.0 0.0 0.00 0.00 0.00 97 1012.9
20260905112356 54 142 0.0 0.0 0.00 0.00 0.00 97 1012.8
20260905111850 54 143 1.0 1.0 0.00 0.00 0.00 97 1013.0
20260905111345 54 143 0.0 1.0 0.00 0.00 0.00 97 1013.0
20260905110844 54 143 0.0 0.0 0.00 0.00 0.00 97 1013.2
20260905110338 54 143 0.0 0.0 0.00 0.00 0.00 97 1013.1
20260905105834 54 143 0.0 0.0 0.00 0.00 0.00 97 1013.1
20260905105333 54 143 0.0 0.0 0.00 0.00 0.00 97 1013.0
20260905104827 54 143 0.0 0.0 0.00 0.00 0.00 97 1013.1
20260905104324 54 143 0.0 0.0 0.00 0.00 0.00 97 1013.0
20260905103823 54 143 0.0 0.0 0.00 0.00 0.00 97 1013.3
20260905103319 55 143 0.0 0.0 0.00 0.00 0.00 97 1013.1
20260905102815 55 143 0.0 0.0 0.00 0.00 0.00 97 1013.1
20260905102311 55 143 0.0 0.0 0.00 0.00 0.00 97 1013.1
20260905101811 55 143 0.0 0.0 0.00 0.00 0.00 97 1013.2
20260905101309 55 143 0.0 0.0 0.00 0.00 0.00 97 1013.0
20260905100803 55 143 0.0 0.0 0.00 0.00 0.00 97 1012.9
20260905100259 55 143 0.0 0.0 0.00 0.00 0.00 97 1013.1
20260905095758 55 143 0.0 0.0 0.00 0.00 0.00 97 1013.3
20260905095253 55 143 0.0 0.0 0.00 0.00 0.00 97 1013.3
20260905094748 55 143 0.0 0.0 0.00 0.00 0.00 97 1013.2
20260905094244 55 143 0.0 0.0 0.00 0.00 0.00 96 1013.1
20260905093742 56 143 0.0 0.0 0.00 0.00 0.00 96 1013.3
20260905093238 56 143 0.0 0.0 0.00 0.00 0.00 96 1013.2
20260905092734 56 143 0.0 0.0 0.00 0.00 0.00 96 1013.2
20260905092229 56 142 1.0 1.0 0.00 0.00 0.00 96 1013.2
20260905091729 56 142 0.0 0.0 0.00 0.00 0.00 96 1013.2
20260905091223 57 145 1.0 1.0 0.00 0.00 0.00 96 1013.1
20260905090717 56 145 0.0 0.0 0.00 0.00 0.00 96 1013.3
20260905090213 56 145 0.0 0.0 0.00 0.00 0.00 96 1013.3
20260905085712 56 145 0.0 0.0 0.00 0.00 0.00 96 1013.1
20260905085207 56 145 0.0 0.0 0.00 0.00 0.00 96 1013.4
20260905084706 57 145 0.0 0.0 0.00 0.00 0.00 96 1013.6
20260905084201 57 145 0.0 0.0 0.00 0.00 0.00 95 1013.5
20260905083655 57 145 0.0 0.0 0.00 0.00 0.00 95 1013.4
20260905083152 57 145 0.0 0.0 0.00 0.00 0.00 95 1013.6
20260905082648 58 145 0.0 0.0 0.00 0.00 0.00 95 1013.6
20260905082142 57 145 0.0 0.0 0.00 0.00 0.00 95 1013.6
20260905081637 57 145 0.0 0.0 0.00 0.00 0.00 95 1013.7
20260905081132 57 145 0.0 0.0 0.00 0.00 0.00 95 1013.6
20260905080627 57 145 0.0 0.0 0.00 0.00 0.00 95 1014.1
20260905080127 57 145 0.0 0.0 0.00 0.00 0.00 95 1013.9
20260905075626 57 145 0.0 0.0 0.00 0.00 0.00 95 1013.9
20260905075120 57 147 0.0 0.0 0.00 0.00 0.00 94 1014.1
20260905074619 57 147 0.0 0.0 0.00 0.00 0.00 94 1013.9
20260905074115 58 147 0.0 0.0 0.00 0.00 0.00 94 1014.1
20260905073611 58 147 1.0 1.0 0.00 0.00 0.00 94 1014.3
20260905073106 58 146 1.0 1.0 0.00 0.00 0.00 94 1014.3
20260905072605 58 146 1.0 1.0 0.00 0.00 0.00 94 1014.2
20260905072101 57 138 0.0 1.0 0.00 0.00 0.00 93 1014.1
20260905071558 58 139 0.0 0.0 0.00 0.00 0.00 93 1014.2
20260905071058 58 139 0.0 0.0 0.00 0.00 0.00 93 1014.1
20260905070553 58 139 0.0 0.0 0.00 0.00 0.00 93 1014.1
20260905070049 58 139 0.0 1.0 0.00 0.00 0.00 93 1014.3
20260905065546 59 139 0.0 0.0 0.00 0.00 0.00 92 1013.9
20260905065041 59 139 0.0 1.0 0.00 0.00 0.00 92 1014.2
20260905064536 59 139 0.0 0.0 0.00 0.00 0.00 92 1014.0
20260905064032 59 139 0.0 0.0 0.00 0.00 0.00 92 1013.9
20260905063530 59 139 0.0 0.0 0.00 0.00 0.00 91 1014.1
20260905063027 59 139 0.0 0.0 0.00 0.00 0.00 92 1014.1
20260905062526 59 139 0.0 0.0 0.00 0.00 0.00 91 1014.3
20260905062021 59 139 0.0 0.0 0.00 0.00 0.00 91 1013.9
20260905061517 59 141 0.0 0.0 0.00 0.00 0.00 91 1014.0
20260905061015 59 140 0.0 0.0 0.00 0.00 0.00 91 1013.9
20260905060512 59 139 0.0 0.0 0.00 0.00 0.00 91 1013.9
20260905060007 59 140 0.0 0.0 0.00 0.00 0.00 91 1013.9
20260905055505 59 139 0.0 0.0 0.00 0.00 0.00 91 1013.8
20260905055000 59 140 0.0 1.0 0.00 0.00 0.00 90 1013.5
20260905054456 59 141 1.0 1.0 0.00 0.00 0.00 90 1013.9
20260905053951 59 142 0.0 0.0 0.00 0.00 0.00 90 1013.8
20260905053446 60 141 0.0 1.0 0.00 0.00 0.00 89 1014.0
20260905052942 60 142 0.0 0.0 0.00 0.00 0.00 90 1013.8
20260905052441 60 139 0.0 0.0 0.00 0.00 0.00 90 1013.8
20260905051940 59 135 1.0 2.0 0.00 0.00 0.00 89 1013.8
20260905051436 60 139 0.0 1.0 0.00 0.00 0.00 89 1013.8
20260905050933 60 140 0.0 0.0 0.00 0.00 0.00 89 1014.0
20260905050429 60 138 0.0 0.0 0.00 0.00 0.00 89 1013.6
20260905045924 60 140 1.0 1.0 0.00 0.00 0.00 89 1013.7
20260905045414 60 129 1.0 2.0 0.00 0.00 0.00 89 1013.7
20260905044909 61 176 1.0 1.0 0.00 0.00 0.00 89 1013.5
20260905044404 60 151 0.0 1.0 0.00 0.00 0.00 87 1013.6
20260905043903 61 161 1.0 1.0 0.00 0.00 0.00 87 1013.3
20260905043358 61 168 0.0 0.0 0.00 0.00 0.00 87 1013.6
20260905042857 61 142 1.0 1.0 0.00 0.00 0.00 86 1013.5
20260905042352 62 149 0.0 1.0 0.00 0.00 0.00 85 1013.0
20260905041847 62 152 0.0 1.0 0.00 0.00 0.00 85 1013.3
20260905041343 62 168 0.0 0.0 0.00 0.00 0.00 84 1013.4
20260905040838 63 188 0.0 1.0 0.00 0.00 0.00 83 1013.1
20260905040337 63 187 0.0 0.0 0.00 0.00 0.00 84 1013.2
20260905035836 63 153 0.0 0.0 0.00 0.00 0.00 84 1013.1
20260905035332 64 152 0.0 0.0 0.00 0.00 0.00 84 1013.3
20260905034829 65 165 1.0 1.0 0.00 0.00 0.00 84 1012.9
20260905034324 65 191 1.0 1.0 0.00 0.00 0.00 82 1013.1
20260905033822 65 194 0.0 0.0 0.00 0.00 0.00 81 1013.1
20260905033318 66 142 1.0 1.0 0.00 0.00 0.00 84 1013.0
20260905032817 66 129 1.0 1.0 0.00 0.00 0.00 84 1012.9
20260905032313 66 154 0.0 0.0 0.00 0.00 0.00 83 1012.9
20260905031808 66 172 0.0 0.0 0.00 0.00 0.00 82 1012.7
20260905031304 66 158 0.0 0.0 0.00 0.00 0.00 82 1012.9
20260905030759 67 157 0.0 0.0 0.00 0.00 0.00 82 1012.7
20260905030254 67 158 1.0 1.0 0.00 0.00 0.00 81 1012.5
20260905025748 67 123 2.0 2.0 0.00 0.00 0.00 81 1012.4
20260905025244 67 150 1.0 2.0 0.00 0.00 0.00 80 1012.5
20260905024740 68 147 1.0 1.0 0.00 0.00 0.00 79 1012.3
20260905024235 68 151 1.0 1.0 0.00 0.00 0.00 78 1012.4
20260905023735 68 150 0.0 0.0 0.00 0.00 0.00 78 1012.4
20260905023230 68 131 1.0 2.0 0.00 0.00 0.00 78 1012.5
20260905022729 69 110 1.0 2.0 0.00 0.00 0.00 77 1012.5
20260905022225 69 184 2.0 2.0 0.00 0.00 0.00 77 1012.5
20260905021719 70 144 4.0 5.0 0.00 0.00 0.00 76 1012.5
20260905021214 70 170 4.0 5.0 0.00 0.00 0.00 75 1012.7
20260905020709 71 172 2.0 3.0 0.00 0.00 0.00 74 1012.4
20260905020204 71 154 3.0 5.0 0.00 0.00 0.00 72 1012.4
20260905015703 71 170 1.0 2.0 0.00 0.00 0.00 71 1012.4
20260905015203 72 139 2.0 3.0 0.00 0.00 0.00 70 1012.3
20260905014701 72 143 1.0 1.0 0.00 0.00 0.00 69 1012.3
20260905014157 73 124 1.0 2.0 0.00 0.00 0.00 68 1012.2
20260905013653 73 125 3.0 3.0 0.00 0.00 0.00 67 1012.1
20260905013148 74 134 2.0 2.0 0.00 0.00 0.00 65 1012.1
20260905012643 75 150 1.0 2.0 0.00 0.00 0.00 62 1012.3
20260905012135 75 123 3.0 3.0 0.00 0.00 0.00 61 1012.3
20260905011631 75 164 1.0 1.0 0.00 0.00 0.00 60 1012.3
20260905011126 76 161 1.0 1.0 0.00 0.00 0.00 59 1012.1
20260905010621 76 165 1.0 1.0 0.00 0.00 0.00 57 1012.4
20260905010116 77 125 3.0 3.0 0.00 0.00 0.00 56 1012.2
20260905005612 77 133 3.0 3.0 0.00 0.00 0.00 55 1012.2
20260905005108 77 129 5.0 6.0 0.00 0.00 0.00 55 1012.2
20260905004602 77 100 4.0 5.0 0.00 0.00 0.00 54 1012.4
20260905004057 78 164 2.0 2.0 0.00 0.00 0.00 53 1012.3
20260905003553 80 114 3.0 3.0 0.00 0.00 0.00 50 1012.2
20260905003048 79 67 3.0 3.0 0.00 0.00 0.00 52 1012.4
20260905002544 80 125 3.0 3.0 0.00 0.00 0.00 50 1012.3
20260905002044 80 114 1.0 1.0 0.00 0.00 0.00 49 1012.3
20260905001538 79 159 2.0 2.0 0.00 0.00 0.00 50 1012.3
20260905001032 80 90 3.0 5.0 0.00 0.00 0.00 49 1012.2
20260905000528 80 170 0.0 0.0 0.00 0.00 0.00 41 1012.3
20260905000024 80 129 6.0 7.0 0.00 0.00 0.00 42 1012.2
20260904235519 80 112 3.0 3.0 0.00 0.00 0.00 46 1012.3
20260904235019 81 89 4.0 5.0 0.00 0.00 0.00 47 1012.3
20260904234519 80 119 2.0 2.0 0.00 0.00 0.00 49 1012.4
20260904234015 80 176 2.0 2.0 0.00 0.00 0.00 49 1012.5
20260904233509 80 192 2.0 2.0 0.00 0.00 0.00 48 1012.7
20260904233006 80 188 2.0 3.0 0.00 0.00 0.00 44 1012.3
20260904232501 79 103 3.0 3.0 0.00 0.00 0.00 46 1012.6
20260904231953 80 173 4.0 6.0 0.00 0.00 0.00 44 1012.4
20260904231448 80 99 1.0 2.0 0.00 0.00 0.00 46 1012.3
20260904230943 79 190 5.0 7.0 0.00 0.00 0.00 42 1012.6
20260904230442 79 163 4.0 6.0 0.00 0.00 0.00 47 1012.6
20260904225937 80 178 5.0 7.0 0.00 0.00 0.00 49 1012.7
20260904225434 80 175 0.0 1.0 0.00 0.00 0.00 47 1012.6
20260904224929 80 170 2.0 3.0 0.00 0.00 0.00 44 1012.6
20260904224425 80 142 2.0 3.0 0.00 0.00 0.00 45 1012.6
20260904223924 80 157 2.0 2.0 0.00 0.00 0.00 45 1012.4
20260904223423 80 139 3.0 3.0 0.00 0.00 0.00 46 1012.7
20260904222920 80 151 6.0 7.0 0.00 0.00 0.00 47 1012.6
20260904222415 81 162 0.0 1.0 0.00 0.00 0.00 50 1012.6
20260904221915 80 89 3.0 3.0 0.00 0.00 0.00 51 1012.7
20260904221409 80 185 5.0 6.0 0.00 0.00 0.00 51 1012.8
20260904220905 81 163 2.0 2.0 0.00 0.00 0.00 50 1012.8
20260904220404 81 137 4.0 5.0 0.00 0.00 0.00 49 1012.6
20260904215859 81 195 3.0 3.0 0.00 0.00 0.00 49 1012.6
20260904215354 80 93 5.0 8.0 0.00 0.00 0.00 51 1012.6
20260904214850 80 103 4.0 5.0 0.00 0.00 0.00 51 1012.8
20260904214346 81 134 8.0 9.0 0.00 0.00 0.00 50 1012.8
20260904213844 80 78 4.0 6.0 0.00 0.00 0.00 51 1012.9
20260904213339 80 95 8.0 10.0 0.00 0.00 0.00 52 1012.8
20260904212836 80 122 10.0 13.0 0.00 0.00 0.00 53 1013.0
20260904212335 80 81 6.0 8.0 0.00 0.00 0.00 54 1012.9
20260904211831 81 116 6.0 8.0 0.00 0.00 0.00 52 1012.9
20260904211325 81 79 4.0 6.0 0.00 0.00 0.00 54 1012.9
20260904210815 81 161 5.0 7.0 0.00 0.00 0.00 54 1012.9
20260904210314 80 136 3.0 5.0 0.00 0.00 0.00 55 1012.8
20260904205811 81 127 8.0 10.0 0.00 0.00 0.00 53 1013.0
20260904205306 80 139 3.0 6.0 0.00 0.00 0.00 56 1013.0
20260904204803 81 185 3.0 3.0 0.00 0.00 0.00 54 1013.0
20260904204258 80 160 1.0 2.0 0.00 0.00 0.00 56 1012.9
20260904203754 80 160 5.0 7.0 0.00 0.00 0.00 56 1012.9
20260904203250 79 216 5.0 7.0 0.00 0.00 0.00 56 1013.0
20260904202746 81 189 3.0 3.0 0.00 0.00 0.00 56 1013.1
20260904202242 80 200 3.0 5.0 0.00 0.00 0.00 56 1013.1
20260904201737 81 153 3.0 5.0 0.00 0.00 0.00 55 1012.9
20260904201237 81 158 5.0 7.0 0.00 0.00 0.00 56 1012.7
20260904200732 82 95 7.0 8.0 0.00 0.00 0.00 55 1012.9
20260904200227 82 29 6.0 10.0 0.00 0.00 0.00 54 1013.1
20260904195726 81 142 5.0 8.0 0.00 0.00 0.00 54 1013.3
20260904195224 80 117 6.0 7.0 0.00 0.00 0.00 55 1012.9
20260904194720 80 144 5.0 8.0 0.00 0.00 0.00 55 1013.0
20260904194219 81 140 4.0 5.0 0.00 0.00 0.00 53 1012.8
20260904193714 81 167 5.0 6.0 0.00 0.00 0.00 53 1013.1
20260904193210 82 135 8.0 9.0 0.00 0.00 0.00 51 1013.2
20260904192705 83 151 2.0 2.0 0.00 0.00 0.00 49 1013.3
20260904192200 82 137 1.0 2.0 0.00 0.00 0.00 48 1013.1
20260904191657 82 121 0.0 1.0 0.00 0.00 0.00 47 1013.2
20260904191153 82 150 1.0 1.0 0.00 0.00 0.00 48 1013.2
20260904190649 82 146 3.0 3.0 0.00 0.00 0.00 48 1013.4
20260904190145 82 129 3.0 3.0 0.00 0.00 0.00 48 1013.4
20260904185642 81 262 2.0 2.0 0.00 0.00 0.00 48 1013.8
20260904185136 80 17 2.0 2.0 0.00 0.00 0.00 52 1013.7
20260904184634 80 63 3.0 5.0 0.00 0.00 0.00 50 1014.0
20260904184130 80 348 2.0 2.0 0.00 0.00 0.00 51 1013.7
20260904183626 79 11 3.0 3.0 0.00 0.00 0.00 51 1014.0
20260904183120 79 90 3.0 5.0 0.00 0.00 0.00 52 1013.7
20260904182615 79 178 0.0 1.0 0.00 0.00 0.00 54 1013.8
20260904182110 79 83 3.0 6.0 0.00 0.00 0.00 54 1014.0
20260904181606 79 223 2.0 2.0 0.00 0.00 0.00 54 1013.8
20260904181106 78 8 4.0 6.0 0.00 0.00 0.00 54 1014.1
20260904180601 78 251 1.0 1.0 0.00 0.00 0.00 56 1014.0
20260904180056 77 81 2.0 3.0 0.00 0.00 0.00 56 1013.9
20260904175555 78 202 1.0 1.0 0.00 0.00 0.00 57 1014.0
20260904175054 76 104 1.0 1.0 0.00 0.00 0.00 60 1014.1